Главная страница
METAR-TAF:

METAR-TAF

Аэропорты :

Бекешчаба, Венгрия

широта: 46-41-00N, долгота: 021-09-45E, высота над уровнем моря: 86 м

Текущие метеонаблюдения

Эта сводка был подготовлена 3 часа и 17 минут назад, в 17:45 UTC
Штиль
Температура 26°C
Влажность 54%
Давление 1015 hPa
Видимость 10 км и более
небольшая облачность на высоте 7000 фута, мощно-кучевые.

METAR: LHBC 201745Z 00000KT 9999 FEW070TCU 26/16 Q1015

Время: 23:02 (21:02 UTC)


TAF: отсутствует

Метеонаблюдения и прогнозы для более 4000 аэропортов (сводки METAR и TAF).

Имеющиеся станции представлены на карте желтыми и красными точками.

Чтобы увидеть название станции, наведите на нее мышь.

Затем щелкните, чтобы увидеть метеонаблюдения и метеопрогнозы.

Управление картой: чтобы увеличить масштаб, щелкните зеленые кнопки с черным крестиком; чтобы уменьшить масштаб, щелкните зеленую кнопку с тире; для просмотра соседних карт щелкайте зеленые стрелки.


METAR-TAF: